TimeCDT,TemperatureF,Dew PointF,Humidity,Sea Level PressureIn,VisibilityMPH,Wind Direction,Wind SpeedMPH,Gust SpeedMPH,PrecipitationIn,Events,Conditions,WindDirDegrees,DateUTC
12:15 AM,60.8,57.2,88,30.02,10.0,Calm,Calm,-,N/A,,Clear,0,2013-09-27 05:15:00
12:35 AM,60.8,57.2,88,30.02,10.0,Calm,Calm,-,N/A,,Clear,0,2013-09-27 05:35:00
12:55 AM,60.8,57.2,88,30.02,10.0,Calm,Calm,-,N/A,,Clear,0,2013-09-27 05:55:00
1:15 AM,60.8,55.4,82,30.02,10.0,Calm,Calm,-,N/A,,Clear,0,2013-09-27 06:15:00
1:35 AM,59.0,55.4,88,30.02,10.0,Calm,Calm,-,N/A,,Clear,0,2013-09-27 06:35:00
1:55 AM,59.0,55.4,88,30.03,10.0,Calm,Calm,-,N/A,,Clear,0,2013-09-27 06:55:00
2:15 AM,59.0,55.4,88,30.03,10.0,Calm,Calm,-,N/A,,Clear,0,2013-09-27 07:15:00
2:35 AM,59.0,55.4,88,30.03,10.0,Calm,Calm,-,N/A,,Clear,0,2013-09-27 07:35:00
2:55 AM,59.0,55.4,88,30.03,10.0,Calm,Calm,-,N/A,,Mostly Cloudy,0,2013-09-27 07:55:00
3:15 AM,59.0,55.4,88,30.03,10.0,North,4.6,-,N/A,,Mostly Cloudy,10,2013-09-27 08:15:00
3:35 AM,59.0,55.4,88,30.03,10.0,Calm,Calm,-,N/A,,Scattered Clouds,0,2013-09-27 08:35:00
3:55 AM,59.0,55.4,88,30.03,10.0,Calm,Calm,-,N/A,,Scattered Clouds,0,2013-09-27 08:55:00
4:15 AM,57.2,53.6,88,30.03,10.0,Calm,Calm,-,N/A,,Clear,0,2013-09-27 09:15:00
4:35 AM,57.2,55.4,94,30.03,10.0,Calm,Calm,-,N/A,,Clear,0,2013-09-27 09:35:00
4:55 AM,59.0,55.4,88,30.05,10.0,Calm,Calm,-,N/A,,Mostly Cloudy,0,2013-09-27 09:55:00
5:15 AM,57.2,55.4,94,30.05,10.0,Calm,Calm,-,N/A,,Mostly Cloudy,0,2013-09-27 10:15:00
5:35 AM,59.0,55.4,88,30.06,10.0,Calm,Calm,-,N/A,,Mostly Cloudy,0,2013-09-27 10:35:00
5:55 AM,57.2,55.4,94,30.07,10.0,Calm,Calm,-,N/A,,Mostly Cloudy,0,2013-09-27 10:55:00
6:15 AM,57.2,55.4,94,30.08,10.0,Calm,Calm,-,N/A,,Mostly Cloudy,0,2013-09-27 11:15:00
6:35 AM,59.0,55.4,88,30.09,10.0,Calm,Calm,-,N/A,,Overcast,0,2013-09-27 11:35:00
6:55 AM,60.8,57.2,88,30.10,1.2,Calm,Calm,-,N/A,,Overcast,0,2013-09-27 11:55:00
7:15 AM,60.8,57.2,88,30.11,3.0,Calm,Calm,-,N/A,,Overcast,0,2013-09-27 12:15:00
7:35 AM,60.8,57.2,88,30.12,2.5,Calm,Calm,-,N/A,,Overcast,0,2013-09-27 12:35:00
7:55 AM,60.8,57.2,88,30.12,0.8,Calm,Calm,-,N/A,,Overcast,0,2013-09-27 12:55:00
8:15 AM,62.6,59.0,88,30.13,1.5,Calm,Calm,-,N/A,,Overcast,0,2013-09-27 13:15:00
8:35 AM,64.4,60.8,88,30.13,3.0,ENE,4.6,-,N/A,,Overcast,60,2013-09-27 13:35:00
8:55 AM,64.4,60.8,88,30.14,7.0,ENE,5.8,-,N/A,,Mostly Cloudy,60,2013-09-27 13:55:00
9:15 AM,68.0,62.6,83,30.14,9.0,ENE,5.8,-,N/A,,Partly Cloudy,60,2013-09-27 14:15:00
9:35 AM,69.8,62.6,78,30.14,10.0,ENE,4.6,-,N/A,,Clear,60,2013-09-27 14:35:00
9:55 AM,71.6,60.8,69,30.15,10.0,Calm,Calm,-,N/A,,Clear,0,2013-09-27 14:55:00
10:15 AM,73.4,60.8,65,30.14,10.0,Calm,Calm,-,N/A,,Clear,0,2013-09-27 15:15:00
10:35 AM,73.4,59.0,61,30.15,10.0,ENE,6.9,-,N/A,,Clear,70,2013-09-27 15:35:00
10:55 AM,73.4,59.0,61,30.15,10.0,East,5.8,-,N/A,,Clear,100,2013-09-27 15:55:00
11:15 AM,75.2,55.4,50,30.15,10.0,ESE,4.6,-,N/A,,Clear,120,2013-09-27 16:15:00
11:35 AM,77.0,53.6,44,30.14,10.0,ESE,8.1,-,N/A,,Clear,110,2013-09-27 16:35:00
11:55 AM,77.0,53.6,44,30.13,10.0,ESE,4.6,-,N/A,,Clear,120,2013-09-27 16:55:00
12:15 PM,78.8,53.6,42,30.12,10.0,ESE,8.1,-,N/A,,Clear,120,2013-09-27 17:15:00
12:35 PM,78.8,53.6,42,30.12,10.0,ENE,3.5,-,N/A,,Clear,60,2013-09-27 17:35:00
12:55 PM,78.8,53.6,42,30.11,10.0,East,5.8,-,N/A,,Clear,100,2013-09-27 17:55:00
1:15 PM,78.8,55.4,44,30.10,10.0,NE,5.8,-,N/A,,Clear,40,2013-09-27 18:15:00
1:35 PM,78.8,53.6,42,30.09,10.0,NE,4.6,-,N/A,,Clear,50,2013-09-27 18:35:00
1:55 PM,80.6,55.4,42,30.08,10.0,ENE,3.5,-,N/A,,Clear,60,2013-09-27 18:55:00
2:15 PM,80.6,53.6,39,30.07,10.0,NNE,6.9,-,N/A,,Clear,30,2013-09-27 19:15:00
2:35 PM,80.6,53.6,39,30.07,10.0,East,9.2,-,N/A,,Clear,100,2013-09-27 19:35:00
2:55 PM,80.6,53.6,39,30.06,10.0,East,8.1,-,N/A,,Clear,80,2013-09-27 19:55:00
3:15 PM,80.6,53.6,39,30.06,10.0,East,9.2,-,N/A,,Clear,90,2013-09-27 20:15:00
3:35 PM,80.6,53.6,39,30.05,10.0,East,8.1,-,N/A,,Clear,100,2013-09-27 20:35:00
3:55 PM,80.6,53.6,39,30.05,10.0,East,8.1,-,N/A,,Clear,100,2013-09-27 20:55:00
4:15 PM,80.6,55.4,42,30.05,10.0,ESE,6.9,-,N/A,,Clear,110,2013-09-27 21:15:00
4:35 PM,80.6,53.6,39,30.05,10.0,ENE,6.9,-,N/A,,Clear,60,2013-09-27 21:35:00
4:55 PM,80.6,55.4,42,30.05,10.0,ENE,6.9,-,N/A,,Clear,60,2013-09-27 21:55:00
5:15 PM,78.8,55.4,44,30.06,10.0,ENE,6.9,-,N/A,,Clear,60,2013-09-27 22:15:00
5:35 PM,78.8,57.2,47,30.06,10.0,NE,6.9,-,N/A,,Clear,50,2013-09-27 22:35:00
5:55 PM,78.8,57.2,47,30.06,10.0,NE,5.8,-,N/A,,Clear,50,2013-09-27 22:55:00
6:15 PM,73.4,57.2,57,30.06,10.0,NNE,3.5,-,N/A,,Clear,30,2013-09-27 23:15:00
6:35 PM,69.8,60.8,73,30.06,10.0,Calm,Calm,-,N/A,,Clear,0,2013-09-27 23:35:00
6:55 PM,68.0,57.2,68,30.06,10.0,Calm,Calm,-,N/A,,Clear,0,2013-09-27 23:55:00
7:15 PM,68.0,57.2,68,30.06,10.0,Calm,Calm,-,N/A,,Clear,0,2013-09-28 00:15:00
7:35 PM,66.2,57.2,73,30.07,10.0,Calm,Calm,-,N/A,,Clear,0,2013-09-28 00:35:00
7:55 PM,66.2,57.2,73,30.07,10.0,Calm,Calm,-,N/A,,Clear,0,2013-09-28 00:55:00
8:15 PM,64.4,57.2,77,30.08,10.0,Calm,Calm,-,N/A,,Clear,0,2013-09-28 01:15:00
8:35 PM,64.4,57.2,77,30.09,10.0,Calm,Calm,-,N/A,,Clear,0,2013-09-28 01:35:00
8:55 PM,64.4,57.2,77,30.10,10.0,Calm,Calm,-,N/A,,Clear,0,2013-09-28 01:55:00
9:15 PM,62.6,57.2,82,30.10,10.0,Calm,Calm,-,N/A,,Clear,0,2013-09-28 02:15:00
9:35 PM,62.6,57.2,82,30.10,10.0,Calm,Calm,-,N/A,,Clear,0,2013-09-28 02:35:00
9:55 PM,62.6,57.2,82,30.11,10.0,Calm,Calm,-,N/A,,Clear,0,2013-09-28 02:55:00
10:15 PM,60.8,57.2,88,30.11,10.0,Calm,Calm,-,N/A,,Clear,0,2013-09-28 03:15:00
10:35 PM,60.8,57.2,88,30.12,10.0,Calm,Calm,-,N/A,,Clear,0,2013-09-28 03:35:00
10:55 PM,60.8,57.2,88,30.12,10.0,Calm,Calm,-,N/A,,Clear,0,2013-09-28 03:55:00
11:15 PM,60.8,55.4,82,30.12,10.0,Calm,Calm,-,N/A,,Clear,0,2013-09-28 04:15:00
11:35 PM,59.0,55.4,88,30.12,10.0,Calm,Calm,-,N/A,,Clear,0,2013-09-28 04:35:00
11:55 PM,60.8,55.4,82,30.12,10.0,Calm,Calm,-,N/A,,Clear,0,2013-09-28 04:55:00